CZ-6A DEB, 56624

Orbit data source: Space-Track

CZ-6A DEB, 56624 is space debris in SSO originally from a launch on Fri, 11 Nov 2022 UTC launched from the Taiyaun Space Center, China (TSC). Debris objects in space refer to the collection of defunct objects orbiting the Earth. Examples of debris include non-operational satellites, rocket bodies, and fragments generated from explosions, collisions, or faulty payload assembly.

Loading next visibility...
Identifier
56624, 2022-151AEY
Orbit
SSO
Country
Flag of CNCN / PRC
Related business
Manufacturer
SAST
Mission
Spacecraft
Bus & Motor
Unknown
Mass
Unknown
Launch date (UTC)
2022-11-11 (4 years ago)
Launch vehicle
Unknown
Launch site
Taiyaun Space Center, China (TSC)
Object type
Payload
Rocket body
Debris
Shape & HBR
Unknown shape, 0.1 m
Radar Cross Section
Medium (>0.1 m² and <1 m²)

Expand to show TLE details & history
Last TLE update: 3 days ago

TLE from 3 days ago
0 CZ-6A DEB
1 56624U 22151AEY 26262.22253656  .00000216  00000-0  14396-3 0  9998
2 56624  98.8547 263.6978 0045428  78.8541 281.7732 14.10534256180238
Epoch: 2026-09-19T05:20Z
TLE epoch observation values (Epoch: 2026-09-19T05:20:27.158Z)
Latitude
-0.00009°
Longitude
-174.54951°
Altitude
853.876 km
Speed
7.429 km/s
True Right ascension
17h 34m 47s
True Declination
0° 00' 00"
Sunlit
Object was in daylight at epoch
Visualization orbit readout
Latitude
Unknown
Longitude
Unknown
Altitude
Unknown
Speed
Unknown
Apparent Right ascension
Unknown
Apparent Declination
Unknown
Sunlit
N/A
Visualization observer readout
Local Sidereal Time
16:01:30
Azimuth
Unknown
Elevation
Unknown
Doppler factor
Unknown
Orbital elements
Apogee altitude
887.58 km
Perigee altitude
821.865 km
Semi-major axis
7,232.859 km
Eccentricity
0.00454
Inclination
98.8547°
RAAN
263.6978°
Arg. of periapsis
78.8541°
True anomaly
281.263°
Mean anomaly
281.7732°
Eccentric anomaly
281.51816°
Mean motion
3.5284 °/min
Orbital period
102.03 mins
BSTAR
0.00014396
Loading maneuver chart data...
Computing Atmospheric mass density...

Documentation

Showing up to 5 results
|